Follow iAlert.com on twitter @ialertcom
Search For Active Alerts in Your Area  
  Hi Guest:  [ Sign-up / Services ] [ Login ]

Current weather by "City, St" or "zip code"  
 

Advertise Here

Current Conditions: Harbor Springs, Harbor Springs Airport, MI

Light Rain


50.0 F

Last Updated on Oct 23 2017, 1:55 pm EDT
Humidity: 94%
Wind Speed: E 8.1 mph
Barometer 29.78 in
Dewpoint: 48.4 F
Visibility: 10.00 mi
Precip: --
Heat Index: NA
Wind Chill: 47 F
Current conditions at:

Harbor Springs, Harbor Springs Airport, MI (KMGN)

Lat: 45.42 Lon: 84.913

Local Radar Image active severe weather and emergency alerts image image weather storm and storm spotter reports image weather observation monitoring service image
Local
Radar
Active
Alerts
Storm Reports Obs
Monitoring

iAlert Weather and Emergency Alert Notification Services:


ialert severe weather and emergency alerts by text message and email ialert daily weather forecast by email and text message service ialert real-time weather-observation monitoring and alert notification service ialert storm report monitoring alert notification

Observation History for Harbor Springs, Harbor Springs Airport, MI


Time Wind
(mph)
Vis
(mi)
Weather Precip (in) Temperature (F) Relative
Humidity
Wind
Chill
(°F)
Heat
Index
(°F)
Pressure
Air Dwpt altimeter
(in)
sea level
(mb)
1:55 pm EDT E 8.1 10.00 Light Rain -- 50.0 48.4 94% 47 NA 29.78 M
12:55 pm EDT E 8.1 10.00 Rain -- 49.0 47.8 95% 46 NA 29.82 M
11:55 am EDT E 4.6 7.00 Rain -- 49.0 47.5 94% 47 NA 29.86 M
10:55 am EDT E 3.5 7.00 Rain -- 49.0 47.3 95% NA NA 29.88 M
9:36 am EDT E 3.5 10.00 Light Rain -- 49.0 47.3 95% NA NA 29.92 M
10:00 am EDT E 5.8 7.00 Rain -- 49.0 47.5 94% 47 NA 29.91 M
8:55 am EDT E 4.6 10.00 Rain -- 49.0 47.7 95% 47 NA 29.92 M
7:55 am EDT N 0.0 10.00 Light Rain -- 49.0 48.0 95% NA NA 29.94 M
6:55 am EDT NE 3.5 7.00 Rain -- 49.0 47.7 95% NA NA 29.95 M
5:56 am EDT E 5.8 7.00 Rain -- 49.0 48.2 95% 47 NA 29.94 M
4:56 am EDT E 3.5 7.00 Rain -- 49.0 48.2 95% NA NA 29.96 M
3:56 am EDT N 0.0 10.00 Rain -- 50.0 48.2 95% NA NA 29.97 M
2:56 am EDT N 0.0 7.00 Light Rain -- 49.0 48.0 95% NA NA 29.99 M
1:56 am EDT N 0.0 7.00 Heavy Rain -- 50.0 48.2 95% NA NA 29.98 M
12:56 am EDT N 3.5 10.00 Light Rain -- 50.0 48.4 94% NA NA 29.99 M
11:56 pm EDT N 0.0 7.00 Drizzle -- 51.0 49.6 95% NA NA 29.99 M
10:56 pm EDT N 0.0 5.00 Heavy Drizzle -- 51.0 50.0 95% NA NA 30.00 M
9:55 pm EDT E 4.6 7.00 Light Rain -- 52.0 50.2 94% 51 NA 29.99 M
9:35 pm EDT N 0.0 7.00 Light Rain -- 52.0 50.2 94% NA NA 29.99 M
8:55 pm EDT N 0.0 4.00 Drizzle -- 52.0 50.4 95% NA NA 30.00 M
7:55 pm EDT N 0.0 5.00 Drizzle -- 52.0 50.5 95% NA NA 29.99 M
6:55 pm EDT NW 11.5 G 19.6 7.00 Drizzle -- 55.0 52.3 92% 52 NA 29.96 M
5:55 pm EDT W 3.5 5.00 Heavy Rain -- 56.0 54.9 95% NA NA 29.94 M
4:55 pm EDT W 4.6 2.50 Heavy Rain -- 62.0 60.1 94% 62 NA 29.91 M

Regional Weather Observation


Beaver Island, Beaver Island Airport, MI (KSJX)

Mostly Cloudy
55.0 F

Harbor Springs, Harbor Springs Airport, MI (KMGN)

Light Rain
50.0 F

Pellston Regional Airport of Emmet County, MI (KPLN)

Overcast
51.0 F

Mackinac Island Airport, MI (KMCD)

Overcast
51.0 F

Cheboygan, Cheboygan County Airport, MI (KSLH)

Light Drizzle
50.0 F

Gaylord Regional Airport, MI (KGLR)

Rain Fog/Mist
48.0 F

Advertise Here